Location: Zagreb
(45.8000°N, 16.0000°E)
Time: 22:11:39
(UTC+01:00)

Tiros 1 despin weight - Pass Details

Date: 29 January 2020
Orbit: 594 x 642 km, 48.2° (Epoch: 24 February)

Event Time Altitude Azimuth Distance (km) Brightness Sun altitude
Rises 13:26:51 0° 284° (WNW) 2,880 ? 23.8°
Reaches altitude 10° 13:29:09 10° 286° (WNW) 1,982 ? 23.7°
Maximum altitude 13:33:42 74° 11° (N) 652 ? 23.4°
Drops below altitude 10° 13:38:20 10° 98° (E) 2,009 ? 23.1°
Sets 13:40:41 0° 100° (E) 2,922 ? 22.9°
